• en France
  • Liste des pays
  • À 7 jours
  • Température de l'eau
  • Carte satellitaire
  • Carte météo
  • Widgets météo
  • user-avatar
    Se connecter

    Météo par heure à Knighton

    Ce jour, 18 Novembre, Samedi

    Heure Température Précipitation Vent Pression Humidité
    00:00 0°C° 0 mm 3 m/s 739 mmHg 91%
    01:00 +1°C° 0 mm 3 m/s 738 mmHg 91%
    02:00 +1°C° 0 mm 3 m/s 738 mmHg 92%
    03:00 +1°C° 0 mm 3 m/s 738 mmHg 92%
    04:00 +2°C° 0 mm 3 m/s 738 mmHg 93%
    05:00 +2°C° 0 mm 3 m/s 737 mmHg 94%
    06:00 +3°C° 0 mm 3 m/s 737 mmHg 95%
    07:00 +4°C° 0,2 mm 3 m/s 737 mmHg 95%
    08:00 +4°C° 0,2 mm 3 m/s 737 mmHg 96%
    09:00 +6°C° 0,2 mm 2 m/s 737 mmHg 96%
    10:00 +6°C° 0,3 mm 2 m/s 737 mmHg 95%
    11:00 +7°C° 0,3 mm 2 m/s 737 mmHg 94%
    12:00 +7°C° 0,3 mm 2 m/s 736 mmHg 93%
    13:00 +7°C° 0 mm 2 m/s 736 mmHg 91%
    14:00 +7°C° 0 mm 2 m/s 736 mmHg 90%
    15:00 +7°C° 0 mm 2 m/s 736 mmHg 89%
    16:00 +6°C° 0 mm 2 m/s 736 mmHg 89%
    17:00 +5°C° 0 mm 2 m/s 736 mmHg 90%
    18:00 +4°C° 0 mm 2 m/s 736 mmHg 91%
    19:00 +4°C° 0 mm 2 m/s 736 mmHg 91%
    20:00 +4°C° 0 mm 2 m/s 736 mmHg 91%
    21:00 +4°C° 0 mm 2 m/s 736 mmHg 90%
    22:00 +3°C° 0 mm 2 m/s 737 mmHg 90%
    23:00 +3°C° 0 mm 2 m/s 737 mmHg 90%

    Demain, 19 Novembre, Dimanche

    Heure Température Précipitation Vent Pression Humidité
    00:00 +2°C° 0 mm 2 m/s 737 mmHg 90%
    01:00 +3°C° 0 mm 1 m/s 737 mmHg 90%
    02:00 +3°C° 0 mm 1 m/s 737 mmHg 90%
    03:00 +3°C° 0 mm 1 m/s 737 mmHg 90%
    04:00 +3°C° 0 mm 1 m/s 737 mmHg 89%
    05:00 +3°C° 0 mm 1 m/s 737 mmHg 88%
    06:00 +3°C° 0 mm 1 m/s 737 mmHg 87%
    07:00 +4°C° 0 mm 1 m/s 737 mmHg 86%
    08:00 +4°C° 0 mm 1 m/s 737 mmHg 86%
    09:00 +4°C° 0 mm 1 m/s 738 mmHg 85%
    10:00 +5°C° 0 mm 1 m/s 738 mmHg 83%
    11:00 +6°C° 0 mm 1 m/s 738 mmHg 81%
    12:00 +7°C° 0 mm 1 m/s 738 mmHg 78%
    13:00 +6°C° 0 mm 2 m/s 737 mmHg 81%
    14:00 +6°C° 0 mm 2 m/s 737 mmHg 84%
    15:00 +5°C° 0 mm 2 m/s 736 mmHg 87%
    16:00 +5°C° 0 mm 2 m/s 736 mmHg 89%
    17:00 +5°C° 0 mm 2 m/s 736 mmHg 92%
    18:00 +4°C° 0 mm 3 m/s 735 mmHg 95%
    19:00 +4°C° 0 mm 3 m/s 735 mmHg 95%
    20:00 +5°C° 0 mm 3 m/s 735 mmHg 96%
    21:00 +5°C° 0 mm 4 m/s 735 mmHg 96%
    22:00 +6°C° 0,1 mm 4 m/s 734 mmHg 95%
    23:00 +7°C° 0,1 mm 5 m/s 734 mmHg 94%

    Après-demain, 20 Novembre, Lundi

    Heure Température Précipitation Vent Pression Humidité
    00:00 +7°C° 0,1 mm 5 m/s 734 mmHg 93%
    01:00 +7°C° 0,1 mm 6 m/s 733 mmHg 92%
    02:00 +8°C° 0,1 mm 6 m/s 732 mmHg 91%
    03:00 +8°C° 0,1 mm 7 m/s 731 mmHg 91%
    04:00 +8°C° 0,1 mm 7 m/s 731 mmHg 91%
    05:00 +9°C° 0,1 mm 7 m/s 731 mmHg 91%
    06:00 +9°C° 0,1 mm 7 m/s 731 mmHg 91%
    07:00 +9°C° 0,1 mm 7 m/s 730 mmHg 91%
    08:00 +9°C° 0,1 mm 7 m/s 730 mmHg 91%
    09:00 +10°C° 0,1 mm 7 m/s 730 mmHg 91%
    10:00 +10°C° 0,2 mm 7 m/s 730 mmHg 91%
    11:00 +10°C° 0,2 mm 7 m/s 730 mmHg 90%
    12:00 +10°C° 0,2 mm 7 m/s 730 mmHg 90%
    13:00 +10°C° 0,2 mm 7 m/s 729 mmHg 90%
    14:00 +10°C° 0,2 mm 7 m/s 729 mmHg 91%
    15:00 +10°C° 0,2 mm 7 m/s 729 mmHg 92%
    16:00 +10°C° 0,2 mm 6 m/s 729 mmHg 93%
    17:00 +10°C° 0,2 mm 5 m/s 729 mmHg 93%
    18:00 +10°C° 0,2 mm 5 m/s 729 mmHg 94%
    19:00 +11°C° 0,1 mm 4 m/s 729 mmHg 95%
    20:00 +11°C° 0,1 mm 4 m/s 730 mmHg 95%
    21:00 +11°C° 0,1 mm 4 m/s 730 mmHg 95%
    22:00 +11°C° 0,1 mm 4 m/s 730 mmHg 95%
    23:00 +10°C° 0,1 mm 4 m/s 730 mmHg 96%

    21 Novembre, Mardi

    Heure Température Précipitation Vent Pression Humidité
    00:00 +10°C° 0,1 mm 4 m/s 730 mmHg 96%
    01:00 +10°C° 0 mm 4 m/s 730 mmHg 96%
    02:00 +10°C° 0 mm 4 m/s 729 mmHg 96%
    03:00 +10°C° 0 mm 4 m/s 729 mmHg 96%
    04:00 +10°C° 0 mm 4 m/s 729 mmHg 95%
    05:00 +8°C° 0 mm 4 m/s 729 mmHg 94%
    06:00 +8°C° 0 mm 4 m/s 728 mmHg 94%
    07:00 +8°C° 0 mm 5 m/s 728 mmHg 93%
    08:00 +8°C° 0 mm 5 m/s 728 mmHg 92%
    09:00 +8°C° 0 mm 6 m/s 728 mmHg 91%
    10:00 +9°C° 0 mm 6 m/s 728 mmHg 89%
    11:00 +9°C° 0 mm 7 m/s 727 mmHg 87%
    12:00 +9°C° 0 mm 7 m/s 727 mmHg 85%
    13:00 +9°C° 0 mm 7 m/s 727 mmHg 85%
    14:00 +9°C° 0 mm 7 m/s 727 mmHg 86%
    15:00 +10°C° 0 mm 6 m/s 726 mmHg 87%
    16:00 +10°C° 0 mm 7 m/s 726 mmHg 87%
    17:00 +10°C° 0 mm 7 m/s 726 mmHg 87%
    18:00 +10°C° 0 mm 7 m/s 725 mmHg 87%
    19:00 +10°C° 0 mm 7 m/s 725 mmHg 87%
    20:00 +10°C° 0 mm 7 m/s 725 mmHg 86%
    21:00 +9°C° 0 mm 7 m/s 725 mmHg 85%
    22:00 +9°C° 0 mm 7 m/s 725 mmHg 86%
    23:00 +9°C° 0 mm 7 m/s 724 mmHg 86%

    22 Novembre, Mercredi

    Heure Température Précipitation Vent Pression Humidité
    00:00 +9°C° 0 mm 7 m/s 724 mmHg 87%
    01:00 +9°C° 0 mm 7 m/s 724 mmHg 87%
    02:00 +9°C° 0 mm 7 m/s 723 mmHg 88%
    03:00 +9°C° 0 mm 7 m/s 723 mmHg 88%
    04:00 +9°C° 0 mm 7 m/s 723 mmHg 88%
    05:00 +9°C° 0 mm 7 m/s 722 mmHg 88%
    06:00 +9°C° 0 mm 7 m/s 722 mmHg 88%
    07:00 +9°C° 0 mm 7 m/s 722 mmHg 87%
    08:00 +10°C° 0 mm 7 m/s 722 mmHg 87%
    09:00 +10°C° 0 mm 7 m/s 722 mmHg 87%
    10:00 +10°C° 0 mm 8 m/s 721 mmHg 85%
    11:00 +10°C° 0 mm 8 m/s 721 mmHg 82%
    12:00 +11°C° 0 mm 8 m/s 721 mmHg 80%
    13:00 +11°C° 0 mm 8 m/s 721 mmHg 78%
    14:00 +11°C° 0 mm 8 m/s 720 mmHg 76%
    15:00 +11°C° 0 mm 7 m/s 720 mmHg 74%
    16:00 +11°C° 0 mm 7 m/s 720 mmHg 72%
    17:00 +10°C° 0 mm 7 m/s 719 mmHg 71%
    18:00 +9°C° 0 mm 6 m/s 719 mmHg 70%
    19:00 +9°C° 0 mm 6 m/s 719 mmHg 72%
    20:00 +9°C° 0 mm 6 m/s 718 mmHg 74%
    21:00 +9°C° 0 mm 7 m/s 718 mmHg 75%
    22:00 +9°C° 0 mm 6 m/s 717 mmHg 77%
    23:00 +8°C° 0 mm 6 m/s 717 mmHg 79%

    23 Novembre, Jeudi

    Heure Température Précipitation Vent Pression Humidité
    00:00 +8°C° 0 mm 6 m/s 716 mmHg 80%
    01:00 +8°C° 0 mm 6 m/s 715 mmHg 81%
    02:00 +8°C° 0 mm 6 m/s 714 mmHg 83%
    03:00 +8°C° 0 mm 6 m/s 714 mmHg 84%
    04:00 +8°C° 0 mm 7 m/s 713 mmHg 83%
    05:00 +9°C° 0 mm 7 m/s 712 mmHg 81%
    06:00 +9°C° 0 mm 8 m/s 712 mmHg 80%
    07:00 +9°C° 0,1 mm 8 m/s 711 mmHg 81%
    08:00 +10°C° 0,1 mm 9 m/s 710 mmHg 81%
    09:00 +9°C° 0,1 mm 10 m/s 710 mmHg 82%
    10:00 +9°C° 0,7 mm 11 m/s 709 mmHg 82%
    11:00 +9°C° 0,7 mm 12 m/s 708 mmHg 82%
    12:00 +10°C° 0,7 mm 13 m/s 707 mmHg 82%
    13:00 +9°C° 0,3 mm 14 m/s 707 mmHg 81%
    14:00 +9°C° 0,3 mm 15 m/s 708 mmHg 80%
    15:00 +9°C° 0,3 mm 15 m/s 708 mmHg 79%
    16:00 +8°C° 0,1 mm 14 m/s 710 mmHg 78%
    17:00 +7°C° 0,1 mm 12 m/s 712 mmHg 76%
    18:00 +6°C° 0,1 mm 11 m/s 713 mmHg 75%
    19:00 +6°C° 0 mm 9 m/s 714 mmHg 76%
    20:00 +6°C° 0 mm 8 m/s 715 mmHg 77%
    21:00 +5°C° 0 mm 6 m/s 716 mmHg 79%
    22:00 +5°C° 0 mm 6 m/s 716 mmHg 82%
    23:00 +7°C° 0 mm 5 m/s 716 mmHg 86%
    Voir plus